Location: Albuquerque Trailhead
(34.7934°N, 106.3736°W)
Time: 02:27:43
(UTC+00:00)

SL-14 R/B - Pass Details

Date: 20 June 2021
Orbit: 517 x 554 km, 82.4° (Epoch: 27 July)

Event Time Altitude Azimuth Distance (km) Brightness Sun altitude
Exits shadow 04:46:52 62° 236° (SW) 624 3.5 -22.9°
Maximum altitude 04:47:17 69° 277° (W) 596 3.5 -23.0°
Drops below altitude 10° 04:51:19 10° 1° (N) 1,833 6.7 -23.5°
Sets 04:53:30 0° 4° (N) 2,727 7.7 -23.7°
